Location: Unspecified
(52.9830°N, 0.0000°E)
Time: 04:04:20
(UTC+00:00)

AO-91 - Visible Passes

Search period start: 04 April 2026 00:00
Search period end: 14 April 2026 00:00
Orbit: 427 x 638 km, 97.5° (Epoch: 29 March)

Date Brightness Start Highest point End Pass type
(mag) Time Alt. Az. Time Alt. Az. Time Alt. Az.
4 Apr ? 20:08:24 10° NE 20:11:16 19° E 20:11:16 19° E visible
4 Apr ? 21:42:04 10° N 21:46:02 51° WNW 21:46:36 46° WSW visible
5 Apr ? 19:58:57 10° NE 20:01:18 15° E 20:01:23 15° E visible
5 Apr ? 21:32:12 10° N 21:36:12 64° WNW 21:36:44 56° WSW visible
5 Apr ? 23:09:03 10° NW 23:09:42 10° NW 23:10:19 10° WNW visible
6 Apr ? 19:49:45 10° ENE 19:51:17 12° E 19:51:29 12° E visible
6 Apr ? 21:22:20 10° NNE 21:26:20 81° WNW 21:26:50 65° SW visible
6 Apr ? 22:58:22 10° NNW 22:59:58 12° NW 23:01:31 10° WNW visible
7 Apr ? 21:12:28 10° NNE 21:16:26 80° ESE 21:16:55 66° S visible
7 Apr ? 22:48:04 10° NNW 22:50:12 14° NW 22:52:15 10° W visible
8 Apr ? 21:02:37 10° NNE 21:06:30 63° E 21:06:58 56° SE visible
8 Apr ? 22:37:53 10° NNW 22:40:24 17° WNW 22:42:19 12° W visible
9 Apr ? 20:52:46 10° NNE 20:56:32 48° E 20:57:01 45° SE visible
9 Apr ? 22:27:44 10° NNW 22:30:35 20° WNW 22:32:21 15° W visible
10 Apr ? 20:42:56 10° NNE 20:46:31 38° E 20:47:02 36° ESE visible
10 Apr ? 22:17:38 10° N 22:20:43 23° WNW 22:22:22 17° W visible
11 Apr ? 20:33:07 10° NNE 20:36:29 30° E 20:37:02 28° ESE visible
11 Apr ? 22:07:32 10° N 22:10:50 28° WNW 22:12:21 21° WSW visible
12 Apr ? 20:23:21 10° NE 20:26:24 23° E 20:27:01 22° ESE visible
12 Apr ? 21:57:27 10° N 22:00:54 34° WNW 22:02:20 24° WSW visible
13 Apr ? 20:13:37 10° NE 20:16:17 19° E 20:16:58 18° ESE visible
13 Apr ? 21:47:23 10° N 21:50:56 43° WNW 21:52:18 29° WSW visible
